EHI
0 0 0 0 0 0 0 0 0 2 5 8 9 11 9 5 2 0 0 0 0 0 0 0 0 0 0 0 0 0 0 0 0 0 0 0 0 0 0 0 0 0 0
0 0 0 0 0 0 0 0 0 1 3 5 8 9 7 4 2 1 0 0 0 0 0 0 0 0 0 0 0 0 0 0 0 0 0 0 0 0 0 0 0 0 0
0 0 0 0 0 0 0 0 0 0 0 2 4 5 5 4 3 1 0 0 0 0 0 0 0 0 0 0 0 0 0 0 0 0 0 0 0 0 0 0 0 0 0
0 0 0 0 0 0 0 0 0 0 0 0 1 2 3 3 3 1 0 0 0 0 0 0 0 0 0 0 0 0 0 0 0 0 0 0 0 0 0 0 0 0 0
0 0 0 0 0 0 0 0 0 0 0 0 0 0 1 1 1 1 1 0 0 0 0 0 0 0 0 0 0 0 0 0 0 0 0 0 0 0 0 0 0 0 0
0 0 0 0 0 0 0 0 0 0 0 0 0 0 0 0 0 0 0 0 0 0 0 0 0 0 0 0 0 0 0 0 0 0 0 0 0 0 0 0 0 0 0
0 0 0 0 0 0 0 0 0 0 0 0 0 0 0 0 0 0 0 0 0 0 0 0 0 0 0 0 0 0 0 0 0 0 1 1 0 0 0 0 0 0 0
0 0 0 0 0 0 0 0 0 0 0 0 0 0 0 0 0 0 0 0 0 0 0 0 0 0 0 0 0 0 0 0 0 0 1 1 0 0 0 0 0 0 0
0 0 0 0 0 0 0 0 0 0 0 0 0 0 0 0 0 0 0 0 0 0 0 0 0 0 0 0 0 0 0 0 0 0 1 1 0 0 0 0 0 0 0
0 0 0 0 0 0 0 0 0 0 0 0 0 0 0 0 0 0 0 0 0 0 0 0 0 0 0 0 0 0 0 0 0 0 0 0 0 0 0 0 0 0 0
0 0 0 0 0 0 0 0 0 0 0 0 0 0 0 0 0 0 0 0 0 0 0 0 0 0 0 0 0 0 0 0 0 0 0 0 0 0 0 0 0 0 0
0 0 0 0 0 0 0 0 0 0 0 0 0 0 0 0 0 0 0 0 0 0 0 0 0 0 0 0 0 0 0 0 0 0 0 0 0 0 0 0 0 0 0
0 0 0 0 0 0 0 0 0 0 0 0 0 0 0 0 0 0 0 0 0 0 0 0 0 0 0 0 0 0 0 0 0 0 0 0 0 0 0 0 0 0 0
0 0 0 0 0 0 0 0 0 0 0 0 0 0 0 0 0 0 0 0 0 0 0 0 0 0 0 0 0 0 0 0 0 0 0 0 0 0 0 0 0 0 0
0 0 0 0 0 0 0 0 0 0 0 0 0 0 0 0 0 0 0 0 0 0 0 0 0 0 0 0 0 0 0 0 0 0 0 0 0 0 0 0 0 0 0
0 0 0 0 0 0 0 0 0 0 0 0 0 0 0 0 0 0 0 0 0 0 0 0 0 0 0 0 0 0 0 0 0 0 0 0 0 0 0 0 0 0 0
0 0 0 0 0 0 0 0 0 0 0 0 0 0 0 0 0 0 0 0 0 0 0 0 0 0 0 0 0 0 0 0 0 0 0 0 0 0 0 0 0 0 0
0 0 0 0 0 0 0 0 0 0 0 0 0 0 0 0 0 0 0 0 0 0 0 0 0 0 0 0 0 0 0 0 0 0 0 0 0 0 0 0 0 0 0
0 0 0 0 0 0 0 0 0 0 0 0 0 0 0 0 0 0 0 0 0 0 0 0 0 0 0 0 0 0 0 0 0 0 0 0 0 0 0 0 0 0 0
0 0 0 0 0 0 0 0 0 0 0 0 0 0 0 0 0 0 0 0 0 0 0 0 0 0 0 0 0 0 0 0 0 0 0 0 0 0 0 0 0 0 0
0 0 0 0 0 0 0 0 0 0 0 0 0 0 0 0 0 0 0 0 0 0 0 0 0 0 0 0 0 0 0 0 0 0 0 0 0 0 0 0 0 0 0
0 0 0 0 0 0 0 0 0 0 0 0 0 0 0 0 0 0 0 0 0 0 0 0 0 0 0 0 0 0 0 0 0 0 0 0 0 0 0 0 0 0 0
0 0 0 0 0 0 0 0 0 0 0 0 0 0 0 0 0 0 0 0 0 0 0 0 0 0 0 0 0 0 0 0 0 0 0 0 0 0 0 0 0 0 0
0 0 0 0 0 0 0 0 0 0 0 0 0 0 0 0 0 0 0 0 0 0 0 0 0 0 0 0 0 0 0 0 0 0 0 0 0 0 0 0 0 0 0
0 0 0 0 0 0 0 0 0 0 0 0 0 0 0 0 0 0 0 0 0 0 0 0 0 0 0 0 0 0 0 0 0 0 0 0 0 0 0 0 0 0 0
0 0 0 0 0 0 0 0 0 0 0 0 0 0 0 0 0 0 0 0 0 0 0 0 0 0 0 0 0 0 0 0 0 0 0 0 0 0 0 0 0 0 0
Wind_Speed
2 3 3 3 3 2 2 3 2 2 2 2 3 4 4 4 4 4 5 5 6 7 7 6 6 7 6 7 7 5 6 5 4 3 2 2 3 4 5 5 5 6 8
3 4 3 3 3 4 4 4 3 3 2 1 1 2 3 4 5 5 6 7 6 6 5 7 6 6 6 7 8 7 5 5 5 4 3 3 3 5 6 5 6 6 6
2 4 4 5 5 5 5 5 5 4 4 3 2 2 1 1 2 4 4 7 8 7 7 7 7 6 7 7 8 8 9 7 6 5 6 5 7 4 4 7 6 6 5
4 5 5 5 5 4 4 5 5 4 4 4 2 2 2 3 4 3 4 5 7 8 9 8 8 7 6 7 8 9 7 7 6 5 5 5 4 4 3 2 3 4 4
5 5 4 4 4 4 4 4 4 4 4 4 4 3 3 3 3 3 4 4 4 6 7 8 8 8 7 8 8 8 9 8 8 6 4 5 4 2 4 3 3 2 2
4 5 4 4 4 4 3 4 4 4 4 4 4 3 3 4 4 5 4 4 3 3 4 5 6 7 7 8 8 9 9 9 9 8 6 5 5 5 5 4 3 3 1
4 4 4 4 4 4 4 5 5 5 6 6 5 5 4 4 4 4 4 4 3 3 3 3 3 4 5 6 7 8 9 9 9 9 7 7 6 3 4 4 3 3 1
5 4 4 3 4 5 5 6 6 5 6 6 6 6 6 4 3 4 4 4 3 3 4 3 3 3 3 3 4 4 6 5 7 7 6 4 4 3 3 4 5 3 2
4 4 4 4 5 5 5 5 5 5 6 6 6 5 6 5 5 5 4 3 4 4 5 5 4 3 3 2 2 2 2 2 2 2 3 2 1 2 2 2 3 5 5
4 4 4 4 4 4 4 5 5 5 6 6 5 5 6 6 5 5 5 5 6 6 6 6 5 5 4 4 3 2 2 2 2 3 3 4 3 3 3 2 2 1 3
4 4 4 4 3 4 4 5 5 6 6 6 6 6 6 6 6 6 7 6 6 7 7 6 6 6 6 5 5 4 5 5 6 6 6 6 6 4 4 3 3 2 2
4 4 3 3 3 4 4 4 5 5 5 5 5 6 6 7 7 7 7 8 8 8 8 8 8 9 8 8 7 7 7 7 7 7 7 7 6 6 5 4 4 4 3
4 3 3 3 3 3 4 4 5 5 5 5 6 6 7 7 7 7 8 8 8 9 9 9 9 9 9 9 9 9 9 9 9 8 7 6 7 7 5 5 4 3 3
4 3 3 3 3 3 4 4 4 5 5 6 6 6 7 7 7 7 8 9 9 9 9 9 9 10 10 10 9 10 10 10 10 9 8 7 7 6 5 4 4 3 3
5 4 3 2 3 3 4 4 4 5 5 5 6 6 6 6 7 7 8 9 9 10 9 9 9 9 8 9 9 9 10 10 10 9 8 8 9 8 6 4 3 2 2
5 5 4 3 3 3 3 4 4 4 5 5 5 5 6 6 7 7 8 8 9 9 9 9 9 9 8 14 15 11 8 8 7 7 6 6 7 8 8 7 5 3 2
6 5 4 4 4 4 4 4 4 5 5 5 5 5 5 6 6 7 8 8 8 8 8 8 8 9 11 15 15 14 7 7 6 5 4 4 5 6 4 4 4 3 3
5 5 5 4 4 4 4 4 4 5 5 5 5 5 5 6 6 7 7 7 6 6 6 7 7 7 10 13 13 12 7 6 5 5 4 4 3 3 3 3 3 2 2
5 5 5 5 4 4 4 4 5 5 5 5 5 5 5 5 5 6 6 5 5 6 5 5 6 6 7 11 11 9 3 3 3 3 3 4 4 6 6 4 3 3 3
5 5 5 5 5 4 4 5 5 5 5 4 5 5 5 5 5 5 5 4 4 4 4 4 4 5 4 8 10 9 3 3 2 2 2 3 4 7 7 3 3 3 3
6 6 5 4 4 4 5 5 5 4 4 4 4 4 4 4 4 4 3 3 3 4 3 4 4 4 5 7 9 9 4 3 3 2 2 2 7 8 8 6 3 5 5
6 5 5 4 4 4 5 6 5 4 4 4 4 4 3 3 4 4 3 2 3 3 2 3 3 3 3 5 6 8 7 6 3 2 2 3 8 9 9 5 6 8 7
6 5 6 5 4 4 5 6 5 4 4 4 4 4 3 3 3 3 2 1 1 2 1 2 2 1 1 2 6 7 7 7 3 2 6 8 9 8 6 7 8 6 2
6 6 6 6 5 5 5 5 6 5 5 5 4 3 3 3 2 2 2 2 2 2 2 2 2 1 1 2 2 3 4 6 4 3 6 10 9 6 6 6 4 2 2
7 7 7 7 7 6 6 6 6 6 5 5 4 3 3 3 3 3 2 3 2 3 2 1 1 1 1 3 6 4 2 3 3 4 3 3 3 3 3 3 3 3 3
7 7 7 7 7 7 6 6 6 6 6 5 4 3 3 3 3 3 2 4 3 3 3 2 1 1 2 5 6 7 8 9 9 5 3 3 3 3 3 3 4 3 4
Wind_Direction
120 70 41 24 7 347 325 309 295 244 208 196 192 193 201 206 216 229 238 236 226 215 210 209 208 207 208 207 203 198 201 203 174 159 210 256 227 212 207 202 194 185 178
60 61 49 40 22 13 5 345 339 335 328 287 224 205 202 208 212 214 223 231 240 237 223 217 214 211 212 211 207 205 199 198 179 161 153 223 256 252 223 205 204 196 182
69 73 60 53 44 33 12 353 350 347 342 341 344 332 310 256 221 224 222 220 222 230 232 229 224 219 214 217 213 208 205 209 202 185 173 183 213 219 228 217 207 199 190
77 68 59 51 50 38 12 353 350 350 344 340 323 288 264 254 244 236 230 224 218 219 222 226 227 227 223 221 218 214 211 205 209 216 222 214 179 173 206 253 221 200 194
99 93 80 70 64 46 15 352 349 354 353 346 333 314 296 283 290 292 276 261 240 227 222 222 223 226 228 228 226 221 217 213 212 204 205 231 244 208 168 206 221 213 201
118 108 96 83 71 49 20 354 357 3 3 357 346 338 320 315 316 311 303 295 285 263 245 237 230 229 227 228 230 229 226 223 220 214 201 193 201 209 200 192 182 198 210
119 98 80 62 57 44 22 7 13 10 9 4 356 347 337 325 312 309 310 312 307 301 284 264 254 249 240 234 231 231 233 228 224 222 218 211 212 190 192 195 163 155 135
109 98 83 62 51 42 28 17 12 10 10 4 354 351 350 344 334 331 325 320 315 314 321 307 294 287 280 267 250 244 242 237 231 227 219 211 207 188 179 173 156 157 175
118 104 85 64 48 38 28 16 10 14 14 6 357 355 356 353 346 341 340 334 341 344 352 351 350 349 345 335 306 276 270 261 250 227 197 177 143 133 135 135 160 170 185
129 108 87 72 53 41 29 23 19 20 16 9 7 9 3 358 357 360 3 5 7 8 7 9 12 16 19 19 21 15 20 61 52 58 84 86 85 87 87 104 103 138 167
120 99 83 76 65 51 41 32 24 24 18 12 14 14 9 6 10 20 21 21 23 22 23 24 28 31 31 32 45 52 57 70 70 70 80 80 82 84 75 75 82 74 95
110 102 93 80 67 54 43 40 35 30 21 17 22 22 20 22 27 29 28 30 33 33 34 38 43 42 40 40 48 57 63 71 76 78 84 86 86 82 77 76 75 72 58
128 119 106 89 72 58 48 48 44 37 30 29 33 32 32 34 35 33 34 38 42 42 43 46 49 49 49 50 53 61 63 66 68 70 76 80 86 82 78 77 78 73 67
132 121 107 98 89 74 63 55 49 44 45 45 43 41 38 40 42 41 43 44 48 49 49 51 53 54 56 57 59 65 68 68 65 64 66 68 74 81 80 78 79 81 78
143 135 127 108 92 82 75 66 58 47 54 59 54 50 49 48 50 51 51 52 54 56 55 56 56 57 60 64 68 67 71 72 69 65 64 67 73 76 75 81 75 72 71
148 140 137 126 105 88 82 79 72 62 65 66 62 57 59 58 58 60 60 61 60 60 62 60 61 60 65 74 77 79 73 74 72 70 65 68 62 60 61 65 62 54 54
141 143 141 127 111 98 88 86 85 78 74 72 67 63 64 64 63 68 66 63 62 64 66 65 64 64 67 71 73 74 74 71 67 62 55 53 58 54 35 25 25 10 350
138 137 129 121 114 106 99 96 93 91 85 78 75 74 74 73 70 72 71 66 65 66 67 68 69 68 65 66 66 69 69 70 66 59 51 45 39 40 24 9 1 334 316
125 123 124 124 117 110 109 106 98 93 89 83 79 79 82 82 78 76 74 73 75 71 67 67 68 71 62 59 57 53 56 68 65 64 58 44 24 10 10 10 349 335 323
115 119 119 118 118 119 117 113 103 94 88 84 85 85 88 90 88 85 83 81 84 84 81 73 70 73 64 54 49 43 44 42 32 28 48 51 22 358 357 3 347 329 323
124 126 127 122 123 123 117 112 105 102 100 95 93 93 92 95 97 92 89 93 93 89 83 81 73 71 64 50 42 40 44 24 14 14 14 7 359 348 340 340 330 308 317
139 137 132 124 116 119 121 120 123 123 116 111 106 101 97 97 95 92 86 94 102 100 89 85 71 56 54 52 36 30 28 24 18 3 0 340 340 336 333 330 317 321 330
152 144 140 136 130 132 137 141 146 144 137 129 125 122 117 108 109 105 94 85 84 90 81 82 80 48 32 34 27 15 8 7 7 340 333 329 328 330 330 323 323 331 328
158 154 154 157 160 158 154 155 154 156 149 144 143 141 131 121 107 95 73 66 59 58 61 65 59 20 19 31 16 1 355 358 356 345 327 325 322 321 308 313 321 309 276
161 165 170 171 168 164 161 158 159 160 154 151 151 146 138 132 113 91 72 81 77 90 89 78 57 44 5 345 347 344 332 330 315 327 322 317 325 335 333 329 322 318 320
165 171 176 173 167 164 164 164 166 167 163 158 160 158 150 141 138 133 103 88 120 94 80 77 46 346 327 329 334 331 329 327 325 334 326 321 330 329 327 325 324 324 321